Tocumen, Panama

7:13 PM EST on November 21, 2017 (GMT -0500)
Tocumen International

Weather History for MPTO - March, 2013

Change the Weather History Date:

Friday, March 29, 2013

  Actual Average Record
Temperature  
Mean Temperature 82 °F -  
Max Temperature 89 °F 89 °F 95 °F (1998)
Min Temperature 75 °F 73 °F 66 °F (2001)
Cooling Degree Days 17    
Growing Degree Days 32 (Base 50)    
Moisture  
Dew Point 68 °F    
Average Humidity 60    
Maximum Humidity 78    
Minimum Humidity 46    
Precipitation  
Precipitation 0.00 in - - ()
Sea Level Pressure  
Sea Level Pressure 29.87 in    
Wind  
Wind Speed 3 mph ()    
Max Wind Speed 18 mph    
Max Gust Speed -    
Visibility 6.2 miles    
Events      
Averages and records for this station are not official NWS values.
T = Trace of Precipitation, MM = Missing Value Source: Averaged Metar Reports

Daily Weather History Graph

Daily Weather History Graph

Search for Another Location

Airport or City:

Trip Planner

Search our weather history database for the weather conditions in past years. The results will help you decide how hot, cold, wet, or windy it might be!

Date:

Astronomy

Mar. 29, 2013 Rise Set
Actual Time 6:16 AM EST 6:27 PM EST
Civil Twilight 5:55 AM EST 6:48 PM EST
Nautical Twilight 5:31 AM EST 7:13 PM EST
Astronomical Twilight 5:06 AM EST 7:37 PM EST
Moon 8:47 PM EST (3/29) 7:56 AM EST (3/29)
Length of Visible Light 12h 53m
Length of Day
12h 11m
Waning Gibbous, 93% of the Moon is Illuminated
Mar 29
Waning Gibbous
Apr 2
Last Quarter
Apr 10
New
Apr 18
First Quarter
Apr 25
Full

Hourly Weather History & Observations

Time (EST) Temp. Heat Index Dew Point Humidity Pressure Visibility Wind Dir Wind Speed Gust Speed Precip Events Conditions
12:00 AM 82.4 °F 84.6 °F 66.2 °F 58% 29.92 in 6.2 mi Calm Calm - N/A   Partly Cloudy
1:00 AM 80.6 °F 82.7 °F 66.2 °F 61% 29.89 in 6.2 mi Calm Calm - N/A   Partly Cloudy
2:00 AM 77.0 °F - 66.2 °F 69% 29.86 in 6.2 mi Calm Calm - N/A   Scattered Clouds
3:00 AM 75.2 °F - 68.0 °F 78% 29.86 in 6.2 mi Calm Calm - N/A   Scattered Clouds
4:00 AM 77.0 °F - 68.0 °F 74% 29.86 in 6.2 mi Calm Calm - N/A   Scattered Clouds
5:00 AM 77.0 °F - 68.0 °F 74% 29.86 in 6.2 mi Calm Calm - N/A   Partly Cloudy
6:00 AM 77.0 °F - 66.2 °F 69% 29.86 in 6.2 mi Calm Calm - N/A   Partly Cloudy
7:00 AM 78.8 °F - 66.2 °F 65% 29.86 in 6.2 mi Calm Calm - N/A   Partly Cloudy
8:00 AM 84.2 °F 87.3 °F 68.0 °F 58% 29.89 in 5.6 mi Calm Calm - N/A   Partly Cloudy
9:00 AM 86.0 °F 88.2 °F 66.2 °F 51% 29.92 in 6.2 mi NE 5.8 mph - N/A   Scattered Clouds
10:00 AM 87.8 °F 91.4 °F 68.0 °F 52% 29.92 in 6.2 mi NNE 11.5 mph - N/A   Scattered Clouds
11:00 AM 87.8 °F 90.4 °F 66.2 °F 49% 29.92 in 6.2 mi NNE 11.5 mph - N/A   Scattered Clouds
12:00 PM 89.6 °F 93.4 °F 68.0 °F 49% 29.92 in 6.2 mi NE 11.5 mph - N/A   Scattered Clouds
1:00 PM 89.6 °F 92.2 °F 66.2 °F 46% 29.89 in 6.2 mi East 18.4 mph - N/A   Scattered Clouds
2:00 PM 89.6 °F 92.2 °F 66.2 °F 46% 29.86 in 6.2 mi NE 11.5 mph - N/A   Scattered Clouds
3:00 PM 87.8 °F 90.4 °F 66.2 °F 49% 29.83 in 6.2 mi NE 13.8 mph - N/A   Scattered Clouds
4:00 PM 87.8 °F 91.4 °F 68.0 °F 52% 29.83 in 6.2 mi East 4.6 mph - N/A   Mostly Cloudy
5:00 PM 87.8 °F 91.4 °F 68.0 °F 52% 29.80 in 6.2 mi NW 10.4 mph - N/A   Mostly Cloudy
6:00 PM 84.2 °F 87.3 °F 68.0 °F 58% 29.83 in 6.2 mi WNW 4.6 mph - N/A   Mostly Cloudy
7:00 PM 84.2 °F 87.3 °F 68.0 °F 58% 29.86 in 6.2 mi West 6.9 mph - N/A   Mostly Cloudy
8:00 PM 82.4 °F 86.3 °F 69.8 °F 66% 29.86 in 6.2 mi West 5.8 mph - N/A   Mostly Cloudy
9:00 PM 82.4 °F 86.3 °F 69.8 °F 66% 29.89 in 6.2 mi West 3.5 mph - N/A   Scattered Clouds
10:00 PM 82.4 °F 86.3 °F 69.8 °F 66% 29.89 in 6.2 mi Calm Calm - N/A   Scattered Clouds
11:00 PM 80.6 °F 83.9 °F 69.8 °F 70% 29.89 in 6.2 mi Calm Calm - N/A   Scattered Clouds